Starlink 1276

operational
NORAD ID: 45368 Int'l Des: 2020-019 Owner: SPXS Country: US Constellation: starlink
LEOCIRCULARSTARLINK_TYPE

About Starlink 1276

Description loading...

Live Position

Loading 3D Globe...

Upcoming Passes

Altitude History

Altitude vs Time

uPlot chart will show altitude changes over time

Two-Line Element Set

1 45368U 20019J 26046.85652415 .00003228 00000-0 23541-3 0 9995
2 45368 53.0550 264.6308 0001736 97.2241 262.8946 15.06419812326440
Epoch: Feb 15, 2026 • Age: 11 hours

Current Status

Altitude 552.1 km
Velocity 7.59 km/s
Sub-Earth Point 51.14°N, 63.7°E
Launch Date Mar 18, 2020
Age 5.9 years
Type internet

Technical Details

Classification Payload
Mass 260.00 kg
Dry Mass 248.00 kg
Total Mass 260.00 kg
Length 0.20 m
Diameter 2.80 m
Span 9.00 m
Shape Box + pan
Manufacturer SPXS
Bus Type Starlink
Phase Status In Orbit
Owner/State SPXS/US

Large Constellations

Loading constellations...